Temp
-10 -10 -10 -11 -11 -10 -11 -10 -11 -11 -11 -10 -10 -10 -10 -10 -10 -10 -9 -9 -9 -9 -9 -10 -10 -10 -10 -10 -10 -10 -11 -11 -11 -11 -11 -11 -10 -11 -11 -11 -11 -12 -12 -12
-10 -10 -11 -11 -11 -10 -11 -11 -11 -11 -11 -11 -10 -10 -10 -10 -10 -10 -10 -10 -10 -10 -10 -10 -10 -10 -10 -11 -11 -11 -11 -11 -12 -11 -11 -11 -11 -11 -11 -12 -12 -12 -12 -12
-11 -11 -11 -11 -11 -11 -11 -11 -11 -11 -11 -10 -11 -10 -10 -10 -10 -10 -10 -10 -10 -10 -10 -10 -11 -11 -11 -11 -11 -12 -12 -12 -12 -12 -12 -12 -12 -12 -12 -12 -12 -12 -12 -12
-11 -11 -11 -11 -11 -11 -11 -12 -11 -11 -11 -11 -10 -11 -11 -10 -10 -10 -11 -11 -11 -11 -11 -11 -11 -11 -11 -11 -11 -12 -12 -12 -12 -12 -12 -12 -12 -12 -12 -12 -12 -12 -13 -13
-11 -11 -11 -12 -11 -11 -11 -11 -11 -11 -11 -11 -11 -11 -11 -11 -10 -10 -10 -10 -10 -11 -11 -11 -11 -11 -11 -12 -12 -12 -13 -13 -13 -13 -13 -13 -13 -13 -13 -13 -13 -13 -13 -13
-12 -11 -11 -12 -12 -12 -12 -12 -12 -11 -11 -11 -11 -11 -12 -12 -10 -9 -10 -10 -11 -11 -11 -11 -11 -11 -11 -12 -12 -12 -13 -13 -13 -13 -13 -13 -13 -13 -13 -13 -13 -13 -13 -13
-12 -11 -12 -12 -12 -12 -12 -12 -12 -11 -11 -10 -11 -11 -12 -10 -10 -10 -10 -11 -11 -11 -11 -12 -12 -12 -12 -12 -13 -13 -13 -13 -13 -13 -13 -13 -13 -14 -14 -14 -14 -14 -13 -13
-12 -12 -11 -12 -12 -12 -12 -12 -11 -11 -12 -13 -11 -10 -12 -10 -10 -11 -11 -11 -11 -11 -12 -12 -12 -12 -13 -13 -13 -13 -13 -14 -14 -15 -15 -15 -14 -14 -14 -14 -13 -13 -13 -13
-12 -13 -12 -12 -12 -12 -12 -12 -12 -12 -11 -11 -12 -12 -11 -11 -11 -11 -11 -11 -11 -12 -12 -12 -13 -13 -14 -13 -13 -14 -14 -15 -15 -15 -15 -15 -15 -15 -15 -14 -14 -14 -14 -13
-12 -13 -12 -12 -12 -12 -12 -12 -12 -12 -11 -11 -11 -14 -15 -11 -11 -11 -12 -12 -12 -12 -12 -13 -13 -13 -13 -13 -14 -14 -15 -15 -16 -15 -15 -15 -15 -15 -15 -14 -15 -15 -15 -15
-13 -13 -11 -12 -12 -12 -12 -12 -12 -13 -12 -12 -11 -14 -15 -14 -12 -13 -13 -12 -12 -12 -13 -13 -14 -14 -14 -15 -16 -16 -16 -16 -15 -15 -16 -16 -16 -17 -17 -17 -18 -19 -19 -20
-13 -13 -12 -12 -12 -12 -12 -12 -13 -12 -12 -12 -13 -13 -14 -14 -15 -14 -14 -13 -12 -14 -15 -15 -15 -15 -16 -16 -16 -16 -16 -16 -16 -16 -17 -17 -18 -19 -21 -23 -24 -24 -24 -24
-13 -12 -13 -12 -12 -12 -12 -13 -13 -13 -13 -12 -13 -14 -14 -13 -14 -16 -15 -14 -15 -16 -16 -16 -17 -17 -17 -17 -17 -17 -16 -16 -17 -17 -19 -20 -22 -25 -26 -26 -26 -26 -25 -25
-13 -13 -13 -13 -14 -12 -12 -13 -14 -14 -13 -13 -12 -13 -17 -16 -15 -16 -15 -16 -16 -16 -17 -17 -17 -17 -17 -17 -17 -18 -18 -18 -19 -20 -21 -24 -27 -27 -28 -27 -27 -27 -26 -26
-14 -13 -14 -14 -14 -13 -14 -13 -14 -13 -13 -13 -14 -14 -16 -16 -16 -16 -17 -17 -17 -17 -18 -18 -17 -17 -17 -18 -18 -19 -19 -21 -22 -24 -26 -27 -28 -28 -28 -27 -27 -27 -26 -26
-14 -14 -14 -14 -14 -15 -15 -14 -14 -13 -13 -14 -15 -14 -16 -16 -15 -17 -18 -18 -18 -18 -18 -18 -18 -18 -18 -19 -19 -20 -23 -25 -26 -27 -27 -27 -28 -29 -29 -29 -28 -27 -27 -27
-14 -15 -15 -15 -15 -15 -13 -13 -14 -14 -14 -15 -15 -15 -16 -16 -17 -18 -18 -19 -18 -18 -18 -18 -18 -19 -19 -20 -23 -25 -26 -26 -26 -26 -27 -28 -28 -28 -29 -30 -29 -29 -28 -28
-15 -15 -15 -15 -15 -14 -14 -14 -14 -15 -15 -16 -17 -17 -17 -17 -18 -19 -20 -19 -19 -19 -19 -19 -19 -20 -22 -24 -26 -26 -26 -26 -26 -27 -27 -27 -28 -28 -28 -29 -29 -29 -29 -29
-15 -15 -15 -15 -15 -15 -14 -14 -15 -16 -16 -17 -18 -18 -18 -18 -19 -19 -20 -19 -19 -20 -20 -20 -22 -25 -26 -26 -26 -26 -26 -26 -27 -27 -27 -27 -28 -28 -29 -29 -29 -29 -29 -29
-15 -16 -16 -16 -16 -15 -15 -15 -15 -17 -18 -18 -18 -19 -19 -19 -19 -19 -20 -21 -21 -22 -23 -24 -26 -26 -26 -26 -26 -26 -27 -27 -27 -27 -28 -28 -28 -28 -29 -29 -29 -29 -29 -29
-16 -16 -16 -16 -16 -16 -16 -15 -17 -18 -18 -18 -19 -19 -20 -20 -20 -20 -21 -22 -23 -24 -26 -26 -26 -26 -26 -26 -26 -27 -27 -27 -27 -27 -28 -28 -29 -29 -28 -29 -29 -29 -29 -29
-17 -17 -17 -17 -16 -16 -17 -17 -19 -18 -20 -20 -20 -20 -20 -20 -20 -21 -22 -24 -25 -26 -26 -26 -26 -26 -26 -27 -27 -27 -27 -27 -28 -28 -29 -29 -29 -29 -28 -29 -29 -29 -29 -30
-17 -18 -18 -17 -17 -17 -18 -18 -19 -20 -20 -20 -20 -21 -21 -22 -22 -24 -25 -26 -26 -26 -26 -26 -26 -26 -27 -27 -27 -27 -27 -27 -28 -28 -29 -29 -29 -28 -29 -29 -29 -29 -29 -30
-18 -18 -17 -18 -18 -18 -19 -20 -20 -20 -21 -21 -21 -23 -23 -24 -26 -26 -26 -27 -26 -26 -26 -26 -26 -26 -27 -27 -27 -27 -27 -28 -28 -28 -28 -28 -28 -29 -29 -29 -29 -29 -30 -30
-18 -18 -19 -20 -19 -20 -20 -20 -20 -20 -21 -22 -23 -24 -25 -26 -27 -27 -27 -27 -27 -26 -26 -26 -26 -26 -26 -26 -27 -27 -27 -28 -28 -28 -28 -28 -29 -29 -29 -29 -29 -29 -29 -29
-19 -20 -21 -21 -21 -20 -20 -20 -21 -22 -22 -23 -25 -26 -27 -28 -28 -28 -28 -27 -27 -27 -27 -27 -27 -26 -26 -27 -27 -27 -28 -28 -28 -28 -29 -29 -29 -29 -29 -29 -29 -29 -29 -29
Height
5777 5779 5786 5786 5786 5789 5790 5791 5796 5796 5794 5792 5796 5797 5800 5799 5797 5796 5795 5796 5794 5795 5795 5794 5794 5794 5793 5791 5790 5790 5790 5790 5789 5787 5785 5784 5783 5782 5780 5779 5779 5778 5776 5776
5770 5773 5779 5777 5779 5782 5784 5785 5789 5789 5788 5786 5789 5790 5792 5791 5791 5791 5787 5790 5789 5788 5788 5788 5787 5786 5785 5783 5781 5780 5779 5778 5778 5777 5777 5776 5775 5773 5771 5769 5767 5766 5765 5764
5762 5767 5769 5770 5772 5775 5777 5779 5780 5781 5781 5780 5781 5782 5782 5779 5784 5784 5781 5780 5779 5779 5779 5778 5777 5776 5775 5773 5773 5772 5769 5769 5767 5766 5766 5765 5763 5761 5761 5759 5757 5755 5753 5752
5753 5757 5762 5763 5766 5767 5769 5771 5771 5773 5774 5775 5772 5776 5770 5772 5771 5775 5774 5772 5772 5771 5770 5769 5768 5766 5764 5762 5760 5758 5757 5756 5755 5752 5751 5749 5748 5747 5746 5744 5743 5741 5739 5738
5747 5749 5752 5755 5759 5758 5762 5761 5765 5765 5765 5765 5767 5764 5767 5762 5757 5761 5765 5765 5764 5763 5761 5759 5756 5752 5751 5749 5747 5744 5742 5742 5740 5738 5736 5735 5733 5731 5728 5727 5726 5725 5724 5722
5737 5740 5744 5749 5750 5751 5753 5755 5757 5757 5757 5754 5760 5760 5759 5755 5750 5747 5750 5751 5752 5751 5749 5745 5743 5742 5740 5738 5736 5732 5728 5726 5724 5721 5720 5718 5715 5712 5709 5707 5705 5705 5705 5704
5733 5730 5737 5739 5742 5744 5745 5748 5748 5748 5748 5749 5749 5748 5749 5745 5743 5741 5740 5739 5738 5736 5734 5732 5730 5727 5724 5721 5718 5716 5713 5708 5703 5700 5698 5695 5692 5689 5688 5688 5687 5687 5685 5684
5720 5723 5728 5732 5736 5736 5737 5739 5739 5740 5741 5742 5735 5735 5737 5734 5734 5732 5729 5727 5725 5722 5720 5718 5715 5711 5708 5705 5701 5697 5693 5687 5684 5680 5677 5674 5672 5670 5669 5668 5666 5663 5661 5659
5712 5716 5719 5723 5727 5727 5729 5729 5734 5729 5730 5730 5731 5725 5723 5722 5720 5717 5716 5714 5713 5711 5707 5702 5697 5695 5692 5686 5682 5677 5672 5669 5665 5661 5657 5654 5651 5648 5644 5641 5639 5634 5631 5628
5704 5707 5711 5713 5716 5718 5719 5719 5720 5721 5720 5720 5720 5717 5717 5708 5708 5705 5703 5700 5697 5693 5689 5688 5683 5679 5671 5666 5661 5657 5652 5648 5643 5640 5635 5631 5625 5620 5615 5610 5606 5601 5599 5596
5695 5698 5699 5701 5706 5709 5709 5709 5708 5710 5709 5709 5711 5713 5702 5699 5697 5693 5689 5685 5680 5676 5675 5670 5665 5658 5653 5648 5642 5637 5633 5627 5622 5617 5611 5604 5597 5590 5584 5580 5575 5569 5567 5564
5685 5685 5686 5692 5693 5694 5695 5698 5697 5696 5700 5697 5698 5697 5689 5688 5685 5680 5674 5667 5662 5662 5660 5653 5646 5640 5636 5631 5625 5620 5615 5607 5598 5593 5583 5577 5566 5558 5553 5550 5543 5538 5538 5538
5671 5673 5677 5678 5679 5681 5683 5683 5683 5684 5683 5684 5685 5684 5674 5672 5671 5666 5656 5650 5654 5650 5643 5636 5632 5627 5623 5618 5610 5602 5595 5585 5573 5564 5555 5545 5535 5529 5527 5527 5525 5522 5520 5520
5659 5660 5662 5666 5668 5666 5666 5670 5670 5669 5668 5672 5670 5675 5663 5663 5656 5643 5638 5639 5635 5633 5627 5621 5617 5611 5604 5598 5591 5580 5570 5560 5547 5533 5524 5516 5512 5510 5509 5508 5508 5508 5506 5505
5644 5646 5649 5652 5651 5651 5654 5655 5655 5654 5656 5653 5660 5657 5650 5645 5641 5629 5628 5624 5621 5616 5610 5607 5602 5595 5587 5578 5567 5557 5544 5531 5522 5513 5505 5500 5497 5494 5493 5491 5489 5490 5491 5489
5632 5633 5634 5634 5636 5639 5641 5640 5639 5639 5640 5640 5639 5640 5635 5630 5622 5618 5613 5610 5605 5599 5595 5590 5583 5576 5567 5555 5544 5533 5523 5515 5507 5501 5495 5489 5484 5480 5477 5476 5476 5473 5474 5475
5618 5619 5621 5622 5623 5623 5625 5627 5628 5626 5627 5626 5621 5622 5616 5615 5610 5601 5597 5594 5588 5584 5579 5572 5565 5556 5545 5533 5522 5515 5509 5503 5496 5490 5484 5478 5472 5466 5461 5461 5461 5459 5460 5460
5606 5607 5608 5609 5608 5608 5615 5615 5614 5612 5611 5607 5604 5603 5602 5598 5595 5585 5582 5576 5571 5567 5560 5553 5543 5534 5524 5515 5508 5502 5497 5490 5484 5479 5473 5466 5460 5454 5449 5446 5445 5443 5445 5446
5594 5594 5597 5597 5596 5599 5597 5602 5601 5596 5596 5593 5588 5586 5584 5582 5580 5573 5564 5559 5553 5546 5538 5531 5522 5513 5507 5503 5497 5491 5485 5478 5471 5465 5459 5454 5447 5442 5439 5435 5429 5428 5429 5430
5582 5583 5585 5584 5584 5584 5585 5584 5586 5582 5580 5578 5575 5571 5567 5564 5563 5559 5547 5541 5533 5525 5518 5512 5507 5502 5495 5491 5484 5478 5472 5465 5457 5450 5443 5439 5434 5431 5427 5425 5421 5418 5416 5416
5569 5569 5571 5571 5570 5571 5567 5570 5568 5567 5567 5566 5561 5556 5552 5548 5544 5542 5533 5526 5517 5509 5503 5499 5493 5489 5484 5478 5472 5465 5458 5450 5441 5432 5425 5422 5421 5419 5416 5414 5411 5409 5406 5404
5557 5557 5558 5557 5557 5558 5553 5556 5554 5549 5550 5548 5546 5541 5538 5533 5527 5521 5516 5509 5503 5498 5492 5487 5484 5479 5472 5465 5459 5453 5445 5437 5428 5416 5408 5405 5408 5407 5405 5402 5401 5399 5396 5394
5543 5547 5546 5547 5544 5541 5541 5539 5537 5536 5532 5532 5530 5526 5522 5517 5511 5506 5502 5496 5492 5487 5482 5479 5475 5469 5462 5455 5448 5442 5433 5425 5418 5408 5399 5396 5398 5397 5395 5393 5391 5388 5385 5382
5529 5531 5532 5531 5530 5531 5528 5526 5524 5521 5518 5515 5513 5510 5507 5502 5497 5494 5490 5485 5482 5477 5474 5470 5465 5460 5454 5447 5439 5431 5424 5416 5409 5402 5397 5393 5391 5390 5389 5387 5384 5380 5375 5371
5518 5519 5518 5516 5515 5516 5513 5512 5510 5509 5504 5500 5497 5494 5491 5488 5486 5482 5479 5476 5473 5470 5466 5461 5456 5452 5446 5440 5431 5424 5416 5407 5401 5396 5392 5389 5388 5386 5384 5382 5378 5374 5369 5364
5506 5507 5504 5503 5502 5502 5500 5498 5496 5492 5489 5486 5483 5480 5478 5477 5475 5473 5470 5469 5466 5463 5458 5454 5449 5444 5438 5431 5424 5417 5410 5403 5398 5392 5389 5387 5385 5382 5379 5377 5373 5368 5363 5359
Wind_Speed
36 38 32 31 32 30 32 33 28 28 32 36 32 33 29 32 35 38 36 33 37 37 39 40 39 38 39 41 43 44 44 45 46 46 46 48 50 50 49 47 44 41 42 41
37 36 33 35 34 33 32 33 30 31 33 38 34 34 31 33 35 36 42 37 38 39 39 39 41 41 42 43 44 45 44 44 44 45 47 48 49 50 51 50 52 53 50 49
36 34 34 35 34 32 32 32 32 34 33 35 34 34 36 39 34 35 37 39 39 38 38 40 42 44 46 46 47 48 48 49 48 49 50 52 52 53 55 57 57 58 58 59
37 35 31 34 33 33 33 33 34 33 33 33 38 35 40 38 40 34 36 39 39 41 43 45 48 50 52 52 53 55 56 56 57 59 60 61 62 62 62 63 65 65 64 64
34 33 34 34 31 33 31 35 31 33 34 37 36 40 37 43 48 45 41 42 44 46 48 50 51 53 54 56 58 59 61 62 63 64 66 66 67 66 68 70 69 69 71 73
38 37 34 31 32 31 32 32 32 33 35 41 36 38 38 42 51 51 49 46 45 45 47 49 52 55 58 59 61 64 65 67 70 72 74 74 76 77 77 76 76 77 78 76
35 38 32 34 32 31 32 30 33 36 38 39 40 44 41 49 51 52 52 53 53 55 55 54 56 60 63 64 66 68 71 73 74 76 76 76 76 75 74 71 71 73 76 77
39 37 34 33 29 32 33 33 36 37 37 35 46 49 45 52 53 55 56 57 57 58 60 61 65 67 69 70 72 73 75 75 75 74 75 75 77 79 80 81 82 85 86 85
36 37 37 34 31 35 36 38 33 40 41 45 46 52 55 57 59 61 60 61 62 63 64 66 69 71 72 76 78 78 78 78 78 77 79 81 81 81 84 87 90 94 95 97
38 38 39 40 40 42 43 44 43 43 47 48 51 40 34 63 62 63 64 64 66 69 71 71 73 75 77 78 80 80 80 78 79 80 81 85 90 93 97 100 102 103 104 105
43 44 46 46 44 43 46 48 50 48 53 53 55 41 49 58 65 67 67 70 74 76 74 76 78 78 79 78 76 77 78 80 81 86 91 95 99 102 105 107 108 106 103 99
46 49 51 48 51 52 53 52 53 57 54 58 55 56 58 60 63 66 70 75 78 75 75 77 77 77 76 77 79 80 82 86 92 95 101 104 107 107 101 77 69 66 63 61
48 50 48 52 55 53 52 52 53 51 53 53 54 56 61 64 65 66 73 78 73 71 72 73 73 73 75 77 80 85 89 95 100 104 106 104 93 74 58 55 60 56 58 56
46 49 50 49 46 53 55 50 50 50 53 51 55 54 59 61 67 73 76 72 71 69 71 72 73 75 79 82 86 94 98 101 103 97 90 75 63 54 51 52 50 53 56 51
46 48 49 49 52 56 55 53 52 53 52 57 55 59 60 64 66 73 70 71 70 72 71 72 75 78 83 89 94 98 100 87 79 65 55 52 50 53 52 55 53 50 52 45
46 48 49 53 53 51 52 58 59 57 61 60 60 64 62 66 73 69 70 72 73 72 73 76 80 84 89 94 97 89 72 62 54 51 51 49 48 51 52 52 58 59 51 48
47 47 49 51 51 52 54 54 57 61 62 62 66 65 67 68 70 72 73 70 72 74 76 80 84 89 92 87 72 63 57 53 50 50 49 50 50 50 53 51 50 53 50 50
49 50 50 53 55 57 53 55 59 62 62 65 64 64 66 70 72 71 69 71 74 77 80 85 88 86 77 61 55 54 51 50 48 48 48 48 49 51 43 48 54 56 51 49
49 51 50 52 55 56 59 57 57 59 60 62 64 67 69 70 70 68 70 74 75 80 84 84 73 58 54 53 51 49 47 49 52 52 51 50 48 47 43 43 44 50 48 52
50 49 49 51 51 51 52 55 55 58 61 62 62 62 63 65 66 67 70 73 77 77 70 57 50 50 49 45 47 48 53 56 56 58 57 54 50 46 42 39 34 33 39 48
48 46 46 46 49 52 56 57 55 56 59 57 58 60 62 64 66 68 72 73 69 57 50 49 45 41 44 47 50 51 52 54 56 57 56 53 49 42 38 35 37 37 37 35
46 45 47 51 53 55 55 53 53 57 54 57 56 58 61 66 68 70 70 60 49 45 44 39 38 42 45 48 50 51 51 47 48 50 46 42 39 37 37 36 38 39 41 40
46 46 48 50 51 53 52 52 53 53 55 55 58 60 63 65 67 63 51 44 41 37 33 36 39 41 44 47 50 48 44 44 44 43 32 25 28 31 32 29 31 34 37 38
45 45 47 50 50 50 51 53 53 53 55 56 59 61 62 61 52 44 38 37 35 33 35 37 37 39 41 45 44 41 41 40 39 35 27 21 23 21 22 25 31 34 33 34
45 46 46 48 50 51 53 53 55 55 57 60 60 60 56 49 39 33 33 33 32 31 33 35 36 35 39 40 38 37 39 36 31 25 24 21 16 19 21 25 26 27 27 25
45 44 47 49 51 52 53 55 55 58 61 61 56 50 42 32 29 29 30 28 26 25 26 28 29 32 35 37 34 36 37 30 27 22 18 17 18 23 24 27 29 28 27 25
Wind_Direction
243 243 244 251 251 251 251 255 255 253 259 264 257 257 257 262 265 266 263 266 265 265 269 270 271 271 270 270 272 275 275 274 272 271 268 268 271 272 272 269 266 269 271 268
243 245 246 248 251 253 255 257 257 254 259 261 264 264 264 261 259 266 267 268 268 270 271 272 273 274 274 275 275 274 274 272 270 267 265 264 265 268 268 268 269 270 267 267
246 243 241 247 251 255 257 256 255 256 255 264 263 263 264 263 262 264 267 270 271 273 276 278 280 280 279 279 278 276 274 273 271 269 264 262 263 264 266 269 269 270 272 272
242 242 241 248 250 254 255 258 255 259 259 260 261 265 267 268 266 264 266 269 275 278 282 283 284 285 284 281 278 277 275 273 273 270 269 267 266 266 266 265 265 265 266 268
244 239 247 243 247 251 254 255 260 259 261 261 259 270 277 272 278 273 270 276 276 279 280 281 280 278 278 276 275 274 273 273 270 268 267 268 268 268 269 268 266 265 266 266
236 237 242 247 245 248 252 256 257 261 264 266 273 271 276 276 277 277 284 284 280 279 279 278 277 278 278 277 276 275 275 275 274 274 273 272 271 269 268 266 264 264 264 266
240 246 239 243 243 247 253 256 262 263 265 275 278 277 282 276 277 284 286 286 288 289 288 286 286 285 283 281 279 278 279 279 279 277 277 275 272 268 268 271 272 272 270 270
232 239 246 247 249 251 250 255 256 266 271 270 275 278 278 279 280 282 281 281 281 281 284 286 286 286 285 285 285 285 284 281 280 278 277 274 274 278 280 279 278 275 275 273
238 238 242 245 244 252 258 254 265 265 268 271 271 274 279 282 280 279 280 281 283 286 286 285 286 286 287 286 286 284 282 282 281 282 283 285 286 285 286 286 287 286 285 283
240 241 248 250 251 253 258 266 263 265 269 274 277 278 275 279 279 281 282 285 285 283 282 284 284 284 283 283 283 283 284 284 286 289 291 293 293 293 291 289 287 285 283 281
245 248 254 254 255 259 259 260 265 268 269 271 274 268 266 273 279 280 283 283 282 282 283 284 285 285 285 285 285 286 288 292 292 295 294 294 291 288 286 284 282 282 281 283
246 249 253 259 259 259 264 263 264 266 271 275 273 270 270 272 275 276 278 280 280 282 284 283 284 284 285 287 290 292 294 295 295 295 292 290 289 289 290 291 286 279 277 270
252 253 255 259 261 263 266 265 265 267 267 270 271 272 272 275 277 279 274 275 281 283 283 282 283 287 291 292 294 295 296 295 293 291 290 291 293 291 283 275 270 275 275 275
256 256 256 258 259 260 261 262 264 263 271 274 272 272 270 274 273 273 277 283 282 283 283 285 290 293 294 295 294 293 293 293 294 297 298 295 292 283 274 273 267 267 269 269
254 253 255 255 252 258 263 264 260 264 268 269 275 273 270 273 275 276 281 280 280 281 284 289 292 295 295 294 294 295 296 299 302 304 305 302 290 282 271 263 264 255 259 266
248 251 251 252 255 256 254 257 263 269 273 278 277 277 275 275 276 280 277 276 280 283 290 294 295 295 295 295 295 296 299 303 303 305 307 309 307 286 278 272 265 270 263 259
248 247 247 251 252 251 255 259 263 269 276 280 279 279 277 280 278 275 276 281 283 288 294 294 294 294 296 297 296 298 301 299 302 303 302 301 299 306 278 270 270 267 265 265
245 244 244 247 251 255 263 265 272 275 277 277 279 279 278 277 276 277 280 284 289 293 293 293 296 298 295 295 299 298 298 299 300 299 296 295 294 294 302 279 272 268 265 267
245 246 251 254 259 263 267 271 274 273 276 279 280 279 277 278 278 279 287 292 294 293 294 298 298 293 294 298 297 299 301 300 300 297 294 295 294 291 296 293 286 272 271 266
248 252 255 260 264 269 270 272 275 278 277 278 278 277 277 279 283 290 292 293 295 299 300 295 291 296 297 297 300 302 303 302 299 294 290 289 291 291 286 287 290 290 278 270
249 253 258 263 267 270 274 277 278 276 275 276 275 277 281 287 289 291 292 296 300 297 290 295 299 299 301 303 304 306 305 304 302 299 291 282 281 287 285 277 278 280 282 286
252 258 262 265 269 272 275 275 275 273 275 276 279 283 287 288 289 291 296 300 294 289 294 296 301 305 306 307 308 307 307 308 313 311 298 281 278 283 285 273 275 278 280 280
259 264 264 265 268 270 274 274 272 274 275 280 283 284 286 288 291 298 302 290 289 291 292 298 302 305 307 307 310 310 307 307 313 316 307 285 282 281 286 284 284 284 285 283
262 264 267 267 269 271 269 270 272 276 280 282 283 285 288 293 298 298 287 289 295 294 295 297 302 305 306 310 312 314 312 307 309 310 304 293 286 285 289 294 296 295 296 282
261 264 263 265 267 267 268 272 276 280 280 282 285 289 293 293 295 289 293 295 296 296 299 303 305 306 310 314 315 318 322 317 308 304 301 293 285 297 290 306 308 306 305 305
262 260 261 262 264 270 275 277 279 280 282 284 288 289 285 287 286 292 294 295 297 301 308 313 311 310 317 319 316 321 327 320 324 315 302 299 285 299 295 302 306 305 301 299